[[{"header":{"parameterUnit":"m.s-1","parameterCategory":1,"la1":30.2991,"la2":30.254,"lo1":-89.0895,"lo2":-89.0444,"dy":0.0017,"dx":0.0017,"nx":28,"ny":28,"refTime":"2024-10-16T03:00:00:Z","depth":0,"parameterNumber":2,"parameterNumberName":"U-component_of_WINDS"},"data":[0,0,0,0,0,0,0,0,0,0,0,0,0,0,0,0,0,0,0,0,0,0,0,0,0,0,0,0,0,0,0,0,0,0,0,0,0,0,0,0,0,0,0,0,0,0,0,0,0,0,0,0,0,0,0,0,0,0,-3.955,-3.955,0,-3.9572,-3.9572,-3.9572,-3.9401,-3.9396,-3.9392,-3.9387,-3.9411,-3.9416,-3.9421,0,0,0,0,0,0,0,0,0,0,0,0,0,-3.936,-3.9364,-3.955,-3.955,-3.955,-3.9572,-3.9572,-3.9572,-3.9402,-3.9396,-3.939,-3.9385,-3.9409,-3.9415,-3.9421,0,0,0,0,0,0,0,0,0,0,0,0,0,-3.9418,-3.9366,-3.955,-3.9468,-3.9461,-3.9572,-3.9572,-3.9572,-3.9403,-3.9396,-3.9389,-3.9382,-3.9407,-3.9415,-3.9422,-3.9613,0,0,-3.9446,-3.9449,0,0,0,0,0,0,0,0,-3.9415,-3.9425,-3.948,-3.9474,-3.9466,-3.9476,-3.9513,-3.9586,-3.9405,-3.9425,-3.9387,-3.9379,-3.9439,-3.9443,-3.9463,-3.9614,-3.9615,-3.9446,-3.9451,-3.9454,-3.9456,0,0,0,0,0,0,0,-3.9411,-3.9424,-3.9558,-3.9481,-3.9472,-3.943,-3.943,-3.9527,-3.9472,-3.9423,-3.941,-3.9415,-3.9433,-3.9456,-3.9462,-3.9616,-3.9446,-3.9453,-3.9458,-3.9461,-3.9923,-3.9931,0,0,0,0,0,0,-3.9418,-3.9421,-3.9558,-3.9559,-3.9422,-3.9439,-3.944,-3.948,-3.947,-3.9462,-3.9421,-3.9407,-3.9447,-3.9454,-3.9463,-3.9685,-3.9454,-3.9461,-3.9466,-3.9916,-3.9925,-3.9933,0,0,0,0,0,0,-3.9415,-3.9432,-3.9557,-3.9487,-3.9499,-3.945,-3.9497,-3.9485,-3.9507,-3.9469,-3.9459,-3.9455,-3.9441,-3.9452,-3.9577,-3.9684,-3.9465,-3.9472,-3.9906,-3.9918,-3.9929,-4.0133,0,0,0,0,0,0,-3.941,-3.9432,-3.9504,-3.949,-3.9504,-3.9671,-3.9504,-3.949,-3.9521,-3.9502,-3.9498,-3.949,-3.9436,-3.9566,-3.9584,-3.969,-3.9478,-3.9897,-3.9912,-3.9925,-4.0116,-4.015,-4.0179,0,0,0,0,0,-3.9404,-3.9561,-3.9509,-3.9526,-3.9593,-3.9678,-3.9686,-3.9621,-3.953,-3.9602,-3.9577,-3.949,-3.9669,-3.958,-3.9599,-3.9709,-3.989,-3.9908,-3.9924,-4.0102,-4.0143,-4.0178,0,0,0,0,0,0,-3.959,-3.9558,-3.9499,-3.9657,-3.9671,-3.9649,-3.9738,-3.9666,-3.9707,-3.9689,-3.9606,-3.9606,-3.9745,-3.9739,-3.9641,-3.9893,-3.9763,-3.9785,-3.9892,-3.9931,-3.9961,-3.9961,-3.9484,0,0,0,0,0,-3.9649,-3.9721,-3.9688,-3.983,-3.984,-3.9789,-3.9823,-3.9771,-3.9783,-3.9789,-3.9773,-3.9788,-3.9847,-3.9888,-3.9941,-4.0114,-4.011,-4.0199,-4.023,-4.0255,-4.0276,-4.0367,-4.0406,-3.999,-3.999,-3.999,0,0,-3.9773,-3.9764,-3.9814,-3.9867,-3.9873,-3.9949,-3.9795,-3.9882,-3.9937,-3.9802,-3.9919,-3.9908,-3.9919,-4.0069,-4.0134,-4.0069,-4.039,-4.0278,-4.0298,-4.0305,-4.0389,-4.0428,-4.0463,-4.0002,-4.0,-3.9998,0,0,-4.0037,-4.0037,-4.0155,-4.0163,-4.0173,-4.0137,-4.0165,-4.0154,-4.0141,-4.0257,-4.0157,-4.0221,-4.0325,-4.0337,-4.0357,-4.0624,-4.0545,-4.0643,-4.0807,-4.0896,-4.0929,-4.0957,-4.1053,-4.1089,-4.0663,-4.0664,-4.0664,0,-4.019,-4.03,-4.0225,-4.0319,-4.0345,-4.0224,-4.0343,-4.0355,-4.0382,-4.0403,-4.0328,-4.0455,-4.0454,-4.0605,-4.067,-4.069,-4.072,-4.0644,-4.093,-4.0958,-4.0984,-4.1074,-4.111,-4.0675,-4.0674,-4.0673,-4.0672,0,-4.0487,-4.0565,-4.0659,-4.0687,-4.0723,-4.083,-4.0771,-4.0817,-4.0761,-4.0733,-4.0852,-4.0847,-4.0896,-4.0927,-4.0874,-4.1071,-4.103,-4.0944,-4.0812,-4.1036,-4.112,-4.1154,-4.0693,-4.0688,-4.0685,-4.0682,0,0,-4.0871,-4.0855,-4.0891,-4.0902,-4.0903,-4.0962,-4.1062,-4.1109,-4.115,-4.1172,-4.1254,-4.1344,-4.1264,-4.1287,-4.1234,-4.1312,-4.1524,-4.1216,-4.1215,-4.1275,-4.1741,-4.1806,-4.1848,-4.1471,-4.1478,-4.1483,-4.174,0,-4.1129,-4.1299,-4.1234,-4.1409,-4.148,-4.1366,-4.1452,-4.1463,-4.1439,-4.1495,-4.1468,-4.1533,-4.1423,-4.1436,-4.1508,-4.1484,-4.1617,-4.1464,-4.1547,-4.1551,-4.155,-4.1891,-4.1961,-4.2204,-4.1772,-4.1778,-4.1782,0,-4.1454,-4.1488,-4.1671,-4.1658,-4.1685,-4.1765,-4.1802,-4.1857,-4.1866,-4.1843,-4.1868,-4.1797,-4.1894,-4.1761,-4.1894,-4.1791,-4.1821,-4.1814,-4.1821,-4.1828,-4.1682,-4.1908,-4.228,-4.2318,-4.1832,-4.1828,-4.1825,0,-4.1717,-4.1808,-4.1929,-4.1942,-4.193,-4.1989,-4.1987,-4.1988,-4.202,-4.2053,-4.2073,-4.2117,-4.2141,-4.2177,-4.212,-4.2028,-4.2261,-4.2123,-4.2244,-4.2246,-4.23,-4.2298,-4.2684,-4.2318,-4.2317,-4.2317,-4.2316,0,-4.2012,-4.2129,-4.2047,-4.2122,-4.2248,-4.2171,-4.2299,-4.2284,-4.2286,-4.2355,-4.2258,-4.2326,-4.2245,-4.2305,-4.2261,-4.2377,-4.2389,-4.2373,-4.236,-4.2383,-4.2385,-4.2402,-4.2384,-4.2326,-4.2324,-4.2322,-4.2321,0,-4.2329,-4.2278,-4.2402,-4.2381,-4.2378,-4.2472,-4.2453,-4.2521,-4.2489,-4.2579,-4.2595,-4.2546,-4.2611,-4.2557,-4.262,-4.259,-4.2745,-4.2707,-4.2742,-4.2732,-4.2857,-4.2847,-4.3269,-4.332,-4.2921,-4.2925,-4.2928,0,-4.2521,-4.2608,-4.2595,-4.2635,-4.2638,-4.2703,-4.2735,-4.2663,-4.27,-4.2716,-4.2782,-4.2838,-4.288,-4.2989,-4.2959,-4.3007,-4.297,-4.3114,-4.2977,-4.2996,-4.2973,-4.2969,-4.2977,-4.3143,-4.3148,-4.3152,-4.3155,0,-4.2869,-4.284,-4.289,-4.2931,-4.2972,-4.3002,-4.3023,-4.3061,-4.2986,-4.3033,-4.3098,-4.3131,-4.3194,-4.3252,-4.3289,-4.3286,-4.321,-4.3198,-4.3229,-4.3254,-4.3271,-4.3264,-4.282,-4.3189,-4.3186,-4.3183,-4.3182,-4.318,-4.313,-4.3201,-4.3203,-4.3262,-4.327,-4.3292,-4.3355,-4.3331,-4.3383,-4.343,-4.3383,-4.3462,-4.3467,-4.3509,-4.3516,-4.3576,-4.3516,-4.3561,-4.3572,-4.3584,-4.3603,-4.326,-4.3583,-4.3581,-4.358,-4.358,-4.3579,0,-4.3473,-4.3468,-4.3523,-4.3556,-4.3602,-4.3524,-4.3543,-4.3587,-4.3658,-4.3669,-4.3711,-4.3785,-4.384,-4.3814,-4.3862,-4.3915,-4.3881,-4.393,-4.3926,-4.3927,-4.3653,-4.3622,-4.3957,-4.3957,-4.3957,-4.3957,-4.3957,-4.3957,-4.3657,-4.3774,-4.3745,-4.3864,-4.3858,-4.3934,-4.3952,-4.3972,-4.398,-4.4068,-4.4113,-4.4095,-4.4091,-4.4137,-4.4184,-4.4174,-4.4197,-4.426,-4.4238,-4.3983,-4.3946,-4.3911,-4.3881,-4.4265,-4.4265,-4.4506,-4.4508,-4.451]},{"header":{"parameterUnit":"m.s-1","parameterCategory":1,"la1":30.2991,"la2":30.254,"lo1":-89.0895,"lo2":-89.0444,"dy":0.0017,"dx":0.0017,"nx":28,"ny":28,"refTime":"2024-10-16T03:00:00:Z","depth":0,"parameterNumber":3,"parameterNumberName":"V-component_of_WINDS"},"data":[0,0,0,0,0,0,0,0,0,0,0,0,0,0,0,0,0,0,0,0,0,0,0,0,0,0,0,0,0,0,0,0,0,0,0,0,0,0,0,0,0,0,0,0,0,0,0,0,0,0,0,0,0,0,0,0,0,0,-6.5919,-6.592,0,-6.5983,-6.5984,-6.5985,-6.5865,-6.5861,-6.5857,-6.5853,-6.5913,-6.5919,-6.5924,0,0,0,0,0,0,0,0,0,0,0,0,0,-6.5687,-6.5692,-6.5919,-6.592,-6.5921,-6.5983,-6.5984,-6.5985,-6.5865,-6.5861,-6.5856,-6.5851,-6.5912,-6.5918,-6.5924,0,0,0,0,0,0,0,0,0,0,0,0,0,-6.5773,-6.5694,-6.5919,-6.5869,-6.5865,-6.5983,-6.5984,-6.5985,-6.5866,-6.586,-6.5855,-6.5849,-6.591,-6.5917,-6.5925,-6.6094,0,0,-6.595,-6.5953,0,0,0,0,0,0,0,0,-6.5768,-6.5782,-6.5876,-6.5873,-6.5869,-6.591,-6.5924,-6.6021,-6.5868,-6.5866,-6.5853,-6.5846,-6.5917,-6.5924,-6.5949,-6.6096,-6.6099,-6.595,-6.5955,-6.5959,-6.5961,0,0,0,0,0,0,0,-6.5763,-6.5778,-6.5944,-6.5877,-6.5873,-6.5841,-6.5847,-6.5942,-6.5924,-6.5866,-6.5857,-6.5866,-6.5914,-6.5941,-6.5949,-6.61,-6.595,-6.5957,-6.5962,-6.5965,-6.6386,-6.6392,0,0,0,0,0,0,-6.5764,-6.5774,-6.5942,-6.5946,-6.5803,-6.585,-6.5856,-6.5903,-6.5922,-6.592,-6.5871,-6.5861,-6.5931,-6.594,-6.5951,-6.6147,-6.5958,-6.5966,-6.5971,-6.6379,-6.6387,-6.6394,0,0,0,0,0,0,-6.5759,-6.578,-6.594,-6.5858,-6.5876,-6.586,-6.5913,-6.5907,-6.5935,-6.5927,-6.5922,-6.5904,-6.5926,-6.594,-6.6059,-6.6148,-6.597,-6.5977,-6.6372,-6.6382,-6.6391,-6.6543,0,0,0,0,0,0,-6.5753,-6.5779,-6.5845,-6.586,-6.5881,-6.6049,-6.5919,-6.5913,-6.5949,-6.5936,-6.5956,-6.5953,-6.5923,-6.6047,-6.6067,-6.6156,-6.5983,-6.6364,-6.6376,-6.6388,-6.653,-6.6557,-6.658,0,0,0,0,0,-6.5745,-6.5884,-6.5849,-6.5869,-6.5963,-6.6054,-6.6066,-6.6029,-6.5957,-6.6021,-6.6016,-6.5953,-6.6135,-6.6061,-6.6081,-6.6174,-6.6358,-6.6373,-6.6387,-6.6519,-6.6552,-6.6579,0,0,0,0,0,0,-6.5878,-6.5886,-6.5846,-6.5995,-6.6025,-6.6034,-6.6114,-6.6065,-6.6115,-6.61,-6.6051,-6.6056,-6.6185,-6.6191,-6.6108,-6.6336,-6.6234,-6.6253,-6.6328,-6.6359,-6.6383,-6.6378,-6.599,0,0,0,0,0,-6.5925,-6.6001,-6.6002,-6.6133,-6.6151,-6.6131,-6.6169,-6.6138,-6.6167,-6.6178,-6.6182,-6.6211,-6.6274,-6.6317,-6.6375,-6.6531,-6.6532,-6.6604,-6.6629,-6.6649,-6.6666,-6.6747,-6.6778,-6.6441,-6.6441,-6.6441,0,0,-6.6022,-6.6035,-6.6086,-6.616,-6.618,-6.6258,-6.6142,-6.6229,-6.6285,-6.6191,-6.6303,-6.6307,-6.6335,-6.6473,-6.6534,-6.6483,-6.676,-6.6668,-6.6684,-6.669,-6.6765,-6.6797,-6.6825,-6.6451,-6.6449,-6.6448,0,0,-6.6238,-6.6257,-6.6367,-6.639,-6.6421,-6.6407,-6.6433,-6.645,-6.6449,-6.6562,-6.6492,-6.6557,-6.6668,-6.669,-6.6716,-6.694,-6.6883,-6.696,-6.7089,-6.7168,-6.7195,-6.7218,-6.7296,-6.7325,-6.6977,-6.6977,-6.6978,0,-6.6354,-6.647,-6.643,-6.6522,-6.6555,-6.6475,-6.6585,-6.6608,-6.6656,-6.668,-6.6622,-6.6759,-6.6773,-6.6913,-6.6968,-6.6992,-6.7019,-6.6957,-6.7195,-6.7218,-6.7239,-6.7312,-6.7342,-6.6986,-6.6985,-6.6984,-6.6984,0,-6.661,-6.6691,-6.6776,-6.6826,-6.6869,-6.697,-6.6943,-6.6991,-6.6956,-6.6947,-6.7061,-6.7075,-6.7133,-6.7164,-6.7131,-6.73,-6.7267,-6.7203,-6.7099,-6.7281,-6.7349,-6.7377,-6.6999,-6.6996,-6.6994,-6.6991,0,0,-6.6911,-6.6938,-6.697,-6.6991,-6.7019,-6.708,-6.7176,-6.7235,-6.7276,-6.7312,-6.7389,-6.7485,-6.7425,-6.7455,-6.7423,-6.7493,-6.7666,-6.7419,-6.7419,-6.7463,-6.7851,-6.7898,-6.7932,-6.7629,-6.7634,-6.7638,-6.7848,0,-6.7124,-6.7292,-6.7257,-6.742,-6.7493,-6.7417,-6.75,-6.7525,-6.7519,-6.7578,-6.757,-6.7638,-6.7555,-6.7572,-6.7638,-6.7631,-6.7743,-6.7616,-6.7698,-6.7702,-6.7692,-6.7968,-6.8019,-6.8216,-6.7875,-6.7879,-6.7883,0,-6.7396,-6.7443,-6.7614,-6.7629,-6.7658,-6.7734,-6.7784,-6.7842,-6.7868,-6.7858,-6.7892,-6.7846,-6.7938,-6.7834,-6.7959,-6.7873,-6.7905,-6.7906,-6.7913,-6.7918,-6.7802,-6.7979,-6.8278,-6.8308,-6.7925,-6.7921,-6.7918,0,-6.7597,-6.7703,-6.7818,-6.7838,-6.786,-6.7914,-6.7925,-6.7946,-6.7983,-6.8026,-6.8048,-6.8102,-6.813,-6.8171,-6.814,-6.8068,-6.827,-6.8163,-6.8262,-6.8263,-6.8307,-6.8305,-6.8615,-6.8331,-6.833,-6.833,-6.8329,0,-6.7838,-6.7944,-6.7908,-6.7979,-6.8095,-6.8054,-6.817,-6.8171,-6.819,-6.8258,-6.8195,-6.826,-6.8215,-6.8275,-6.8251,-6.8358,-6.8371,-6.8364,-6.8356,-6.8369,-6.837,-6.8388,-6.8373,-6.8337,-6.8336,-6.8334,-6.8333,0,-6.8081,-6.8062,-6.8182,-6.8192,-6.8197,-6.8283,-6.829,-6.8355,-6.8343,-6.843,-6.8448,-6.843,-6.8497,-6.847,-6.8542,-6.8525,-6.8661,-6.8636,-6.8653,-6.8646,-6.8745,-6.8736,-6.9077,-6.9118,-6.8809,-6.8812,-6.8815,0,-6.8236,-6.8316,-6.8335,-6.8377,-6.8393,-6.8461,-6.8499,-6.846,-6.8501,-6.8537,-6.8596,-6.8659,-6.8706,-6.8818,-6.8809,-6.8863,-6.8838,-6.8953,-6.8845,-6.8855,-6.8837,-6.8832,-6.8839,-6.8975,-6.8978,-6.8981,-6.8984,0,-6.8512,-6.8498,-6.8555,-6.8609,-6.8656,-6.8696,-6.873,-6.8768,-6.8731,-6.878,-6.8849,-6.8886,-6.8959,-6.9021,-6.9069,-6.9077,-6.9024,-6.9018,-6.9043,-6.9057,-6.9063,-6.9059,-6.871,-6.901,-6.9007,-6.9005,-6.9004,-6.9003,-6.8714,-6.8781,-6.8805,-6.887,-6.8892,-6.8926,-6.8987,-6.8983,-6.9041,-6.9098,-6.9071,-6.9151,-6.9172,-6.9231,-6.9247,-6.9307,-6.9261,-6.9299,-6.9308,-6.9317,-6.933,-6.9055,-6.9316,-6.9315,-6.9314,-6.9314,-6.9313,0,-6.8985,-6.8996,-6.9057,-6.9108,-6.9159,-6.9106,-6.9141,-6.9186,-6.9257,-6.9283,-6.9331,-6.941,-6.9469,-6.9466,-6.952,-6.9569,-6.9545,-6.9584,-6.9579,-6.9582,-6.9368,-6.934,-6.9602,-6.9602,-6.9602,-6.9602,-6.9601,-6.9601,-6.9132,-6.9242,-6.9231,-6.935,-6.936,-6.9439,-6.9463,-6.9493,-6.9513,-6.9604,-6.9653,-6.9651,-6.9664,-6.9719,-6.977,-6.9767,-6.9789,-6.9837,-6.9825,-6.9626,-6.9597,-6.957,-6.9543,-6.9843,-6.9843,-7.0033,-7.0035,-7.0036]}]]